Time,TemperatureF,DewpointF,PressureIn,WindDirection,WindDirectionDegrees,WindSpeedMPH,WindSpeedGustMPH,Humidity,HourlyPrecipIn,Conditions,Clouds,dailyrainin,SoftwareType,DateUTC
2013-08-16 00:00:00,77.5,56.9,29.79,ESE,103,3.0,6.0,49,0.00,,---,0.00,VWS V14.01,2013-08-16 07:00:00,
2013-08-16 00:01:00,77.5,56.9,29.79,ESE,109,2.0,5.0,49,0.00,,---,0.00,VWS V14.01,2013-08-16 07:01:00,
2013-08-16 00:05:00,77.5,56.9,29.79,ESE,103,3.0,5.0,49,0.00,,---,0.00,VWS V14.01,2013-08-16 07:05:00,
2013-08-16 00:06:00,77.5,56.9,29.79,ESE,106,2.0,5.0,49,0.00,,---,0.00,VWS V14.01,2013-08-16 07:06:00,
2013-08-16 00:10:00,77.5,56.9,29.79,ESE,109,4.0,7.0,49,0.00,,---,0.00,VWS V14.01,2013-08-16 07:10:00,
2013-08-16 00:11:00,77.5,56.9,29.79,ESE,110,2.0,6.0,49,0.00,,---,0.00,VWS V14.01,2013-08-16 07:11:00,
2013-08-16 00:15:00,77.4,56.8,29.79,ESE,113,3.0,6.0,49,0.00,,---,0.00,VWS V14.01,2013-08-16 07:15:00,
2013-08-16 00:16:00,77.3,56.7,29.79,ESE,114,3.0,6.0,49,0.00,,---,0.00,VWS V14.01,2013-08-16 07:16:00,
2013-08-16 00:20:00,77.3,56.7,29.79,ESE,109,3.0,6.0,49,0.00,,---,0.00,VWS V14.01,2013-08-16 07:20:00,
2013-08-16 00:21:00,77.2,56.6,29.79,ESE,111,5.0,6.0,49,0.00,,---,0.00,VWS V14.01,2013-08-16 07:21:00,
2013-08-16 00:25:00,77.2,56.6,29.79,ESE,110,3.0,6.0,49,0.00,,---,0.00,VWS V14.01,2013-08-16 07:25:00,
2013-08-16 00:26:00,77.2,56.6,29.79,ESE,110,2.0,6.0,49,0.00,,---,0.00,VWS V14.01,2013-08-16 07:26:00,
2013-08-16 00:30:00,77.2,57.1,29.79,ESE,109,2.0,6.0,50,0.00,,---,0.00,VWS V14.01,2013-08-16 07:30:00,
2013-08-16 00:31:00,77.2,57.1,29.79,ESE,110,1.0,5.0,50,0.00,,---,0.00,VWS V14.01,2013-08-16 07:31:00,
2013-08-16 00:35:00,77.2,57.1,29.78,ESE,110,3.0,5.0,50,0.00,,---,0.00,VWS V14.01,2013-08-16 07:35:00,
2013-08-16 00:36:00,77.1,57.0,29.78,ESE,104,5.0,6.0,50,0.00,,---,0.00,VWS V14.01,2013-08-16 07:36:00,
2013-08-16 00:40:00,77.1,57.0,29.78,ESE,110,3.0,6.0,50,0.00,,---,0.00,VWS V14.01,2013-08-16 07:40:00,
2013-08-16 00:41:00,77.1,57.0,29.78,ESE,105,2.0,5.0,50,0.00,,---,0.00,VWS V14.01,2013-08-16 07:41:00,
2013-08-16 00:45:00,77.1,57.0,29.78,ESE,115,0.0,5.0,50,0.00,,---,0.00,VWS V14.01,2013-08-16 07:45:00,
2013-08-16 00:46:00,77.1,57.0,29.78,ESE,117,1.0,5.0,50,0.00,,---,0.00,VWS V14.01,2013-08-16 07:46:00,
2013-08-16 00:50:00,77.0,57.0,29.78,ESE,115,0.0,5.0,50,0.00,,---,0.00,VWS V14.01,2013-08-16 07:50:00,
2013-08-16 00:51:00,77.0,57.0,29.78,ESE,117,0.0,2.0,50,0.00,,---,0.00,VWS V14.01,2013-08-16 07:51:00,
2013-08-16 00:55:00,77.0,57.0,29.78,ESE,113,0.0,4.0,50,0.00,,---,0.00,VWS V14.01,2013-08-16 07:55:00,
2013-08-16 00:56:00,76.9,57.4,29.78,ESE,109,0.0,2.0,51,0.00,,---,0.00,VWS V14.01,2013-08-16 07:56:00,
2013-08-16 01:00:00,77.0,57.5,29.78,ESE,109,0.0,3.0,51,0.00,,---,0.00,VWS V14.01,2013-08-16 08:00:00,
2013-08-16 01:01:00,76.9,57.4,29.78,ESE,112,0.0,4.0,51,0.00,,---,0.00,VWS V14.01,2013-08-16 08:01:00,
2013-08-16 01:05:00,76.9,57.4,29.78,ESE,108,2.0,4.0,51,0.00,,---,0.00,VWS V14.01,2013-08-16 08:05:00,
2013-08-16 01:06:00,76.7,57.2,29.78,ESE,105,0.0,2.0,51,0.00,,---,0.00,VWS V14.01,2013-08-16 08:06:00,
2013-08-16 01:10:00,76.7,57.2,29.77,ESE,105,0.0,2.0,51,0.00,,---,0.00,VWS V14.01,2013-08-16 08:10:00,
2013-08-16 01:11:00,76.7,57.2,29.78,ESE,103,2.0,3.0,51,0.00,,---,0.00,VWS V14.01,2013-08-16 08:11:00,
2013-08-16 01:15:00,76.6,57.1,29.77,ESE,105,1.0,3.0,51,0.00,,---,0.00,VWS V14.01,2013-08-16 08:15:00,
2013-08-16 01:16:00,76.6,57.1,29.77,ESE,107,2.0,3.0,51,0.00,,---,0.00,VWS V14.01,2013-08-16 08:16:00,
2013-08-16 01:20:00,76.7,57.2,29.77,ESE,107,1.0,4.0,51,0.00,,---,0.00,VWS V14.01,2013-08-16 08:20:00,
2013-08-16 01:21:00,76.7,57.2,29.78,ESE,106,3.0,3.0,51,0.00,,---,0.00,VWS V14.01,2013-08-16 08:21:00,
2013-08-16 01:25:00,76.6,57.7,29.78,ESE,110,0.0,3.0,52,0.00,,---,0.00,VWS V14.01,2013-08-16 08:25:00,
2013-08-16 01:26:00,76.5,57.6,29.78,ESE,113,1.0,4.0,52,0.00,,---,0.00,VWS V14.01,2013-08-16 08:26:00,
2013-08-16 01:30:00,76.1,57.8,29.77,ESE,113,0.0,4.0,53,0.00,,---,0.00,VWS V14.01,2013-08-16 08:30:00,
2013-08-16 01:35:00,75.6,57.3,29.77,ESE,113,0.0,2.0,53,0.00,,---,0.00,VWS V14.01,2013-08-16 08:35:00,
2013-08-16 01:40:00,75.1,57.3,29.77,ESE,110,0.0,0.0,54,0.00,,---,0.00,VWS V14.01,2013-08-16 08:40:00,
2013-08-16 01:45:00,74.7,57.5,29.77,ESE,110,0.0,0.0,55,0.00,,---,0.00,VWS V14.01,2013-08-16 08:45:00,
2013-08-16 01:50:00,74.3,57.6,29.77,ESE,111,0.0,0.0,56,0.00,,---,0.00,VWS V14.01,2013-08-16 08:50:00,
2013-08-16 01:55:00,73.9,57.2,29.78,ESE,111,0.0,0.0,56,0.00,,---,0.00,VWS V14.01,2013-08-16 08:55:00,
2013-08-16 02:00:00,72.8,57.2,29.78,ESE,110,0.0,0.0,58,0.00,,---,0.00,VWS V14.01,2013-08-16 09:00:00,
2013-08-16 02:05:00,72.2,57.1,29.78,ESE,110,0.0,0.0,59,0.00,,---,0.00,VWS V14.01,2013-08-16 09:05:00,
2013-08-16 02:10:00,71.7,57.1,29.78,ESE,110,0.0,0.0,60,0.00,,---,0.00,VWS V14.01,2013-08-16 09:10:00,
2013-08-16 02:15:00,71.3,57.2,29.78,ESE,110,0.0,0.0,61,0.00,,---,0.00,VWS V14.01,2013-08-16 09:15:00,
2013-08-16 02:20:00,71.2,57.1,29.78,ESE,110,0.0,0.0,61,0.00,,---,0.00,VWS V14.01,2013-08-16 09:20:00,
2013-08-16 02:25:00,71.2,57.1,29.78,ESE,111,0.0,0.0,61,0.00,,---,0.00,VWS V14.01,2013-08-16 09:25:00,
2013-08-16 02:30:00,71.9,57.3,29.78,ESE,110,2.0,5.0,60,0.00,,---,0.00,VWS V14.01,2013-08-16 09:30:00,
2013-08-16 02:35:00,72.3,57.2,29.78,ESE,110,0.0,0.0,59,0.00,,---,0.00,VWS V14.01,2013-08-16 09:35:00,
2013-08-16 02:40:00,72.3,56.7,29.78,ESE,110,1.0,3.0,58,0.00,,---,0.00,VWS V14.01,2013-08-16 09:40:00,
2013-08-16 02:45:00,72.2,56.6,29.78,ESE,110,0.0,0.0,58,0.00,,---,0.00,VWS V14.01,2013-08-16 09:45:00,
2013-08-16 02:50:00,71.6,56.5,29.78,ESE,110,1.0,2.0,59,0.00,,---,0.00,VWS V14.01,2013-08-16 09:50:00,
2013-08-16 02:55:00,70.6,56.1,29.78,ESE,110,0.0,0.0,60,0.00,,---,0.00,VWS V14.01,2013-08-16 09:55:00,
2013-08-16 03:00:00,69.8,55.8,29.78,ESE,110,0.0,0.0,61,0.00,,---,0.00,VWS V14.01,2013-08-16 10:00:00,
2013-08-16 03:05:00,69.4,55.8,29.78,ESE,110,0.0,0.0,62,0.00,,---,0.00,VWS V14.01,2013-08-16 10:05:00,
2013-08-16 03:10:00,69.0,55.5,29.78,ESE,110,0.0,0.0,62,0.00,,---,0.00,VWS V14.01,2013-08-16 10:10:00,
2013-08-16 03:15:00,68.8,55.3,29.78,ESE,110,0.0,0.0,62,0.00,,---,0.00,VWS V14.01,2013-08-16 10:15:00,
2013-08-16 03:20:00,68.6,55.5,29.78,ESE,110,0.0,0.0,63,0.00,,---,0.00,VWS V14.01,2013-08-16 10:20:00,
2013-08-16 03:25:00,68.2,55.6,29.78,ESE,110,0.0,0.0,64,0.00,,---,0.00,VWS V14.01,2013-08-16 10:25:00,
2013-08-16 03:30:00,68.0,55.4,29.78,ESE,110,0.0,0.0,64,0.00,,---,0.00,VWS V14.01,2013-08-16 10:30:00,
2013-08-16 03:35:00,67.8,55.6,29.78,ESE,110,0.0,0.0,65,0.00,,---,0.00,VWS V14.01,2013-08-16 10:35:00,
2013-08-16 03:40:00,67.7,56.0,29.78,ESE,110,0.0,0.0,66,0.00,,---,0.00,VWS V14.01,2013-08-16 10:40:00,
2013-08-16 03:45:00,68.0,56.2,29.78,ESE,110,0.0,0.0,66,0.00,,---,0.00,VWS V14.01,2013-08-16 10:45:00,
2013-08-16 03:50:00,68.1,56.3,29.78,ESE,110,0.0,0.0,66,0.00,,---,0.00,VWS V14.01,2013-08-16 10:50:00,
2013-08-16 03:55:00,68.2,56.4,29.78,ESE,110,0.0,0.0,66,0.00,,---,0.00,VWS V14.01,2013-08-16 10:55:00,
2013-08-16 04:00:00,68.2,56.8,29.78,ESE,110,0.0,0.0,67,0.00,,---,0.00,VWS V14.01,2013-08-16 11:00:00,
2013-08-16 04:05:00,68.0,56.7,29.78,ESE,110,0.0,0.0,67,0.00,,---,0.00,VWS V14.01,2013-08-16 11:05:00,
2013-08-16 04:10:00,67.7,56.4,29.78,ESE,110,0.0,0.0,67,0.00,,---,0.00,VWS V14.01,2013-08-16 11:10:00,
2013-08-16 04:15:00,67.4,56.1,29.78,ESE,110,0.0,0.0,67,0.00,,---,0.00,VWS V14.01,2013-08-16 11:15:00,
2013-08-16 04:20:00,67.0,56.1,29.79,ESE,110,0.0,0.0,68,0.00,,---,0.00,VWS V14.01,2013-08-16 11:20:00,
2013-08-16 04:25:00,66.7,55.8,29.79,ESE,110,0.0,0.0,68,0.00,,---,0.00,VWS V14.01,2013-08-16 11:25:00,
2013-08-16 04:30:00,66.6,56.1,29.79,ESE,110,0.0,0.0,69,0.00,,---,0.00,VWS V14.01,2013-08-16 11:30:00,
2013-08-16 04:35:00,66.8,56.7,29.79,ESE,110,0.0,0.0,70,0.00,,---,0.00,VWS V14.01,2013-08-16 11:35:00,
2013-08-16 04:40:00,67.9,57.4,29.79,ESE,110,0.0,0.0,69,0.00,,---,0.00,VWS V14.01,2013-08-16 11:40:00,
2013-08-16 04:45:00,68.4,57.4,29.79,ESE,110,0.0,0.0,68,0.00,,---,0.00,VWS V14.01,2013-08-16 11:45:00,
2013-08-16 04:50:00,68.4,57.4,29.79,ESE,110,0.0,0.0,68,0.00,,---,0.00,VWS V14.01,2013-08-16 11:50:00,
2013-08-16 04:55:00,68.3,57.3,29.79,ESE,110,0.0,0.0,68,0.00,,---,0.00,VWS V14.01,2013-08-16 11:55:00,
2013-08-16 05:00:00,68.2,57.7,29.79,ESE,110,0.0,0.0,69,0.00,,---,0.00,VWS V14.01,2013-08-16 12:00:00,
2013-08-16 05:05:00,68.3,57.8,29.79,ESE,110,0.0,0.0,69,0.00,,---,0.00,VWS V14.01,2013-08-16 12:05:00,
2013-08-16 05:10:00,68.0,57.5,29.79,ESE,110,2.0,3.0,69,0.00,,---,0.00,VWS V14.01,2013-08-16 12:10:00,
2013-08-16 05:15:00,67.9,57.4,29.79,ESE,110,2.0,2.0,69,0.00,,---,0.00,VWS V14.01,2013-08-16 12:15:00,
2013-08-16 05:20:00,68.0,57.5,29.80,ESE,110,1.0,2.0,69,0.00,,---,0.00,VWS V14.01,2013-08-16 12:20:00,
2013-08-16 05:25:00,68.4,57.8,29.80,ESE,110,0.0,2.0,69,0.00,,---,0.00,VWS V14.01,2013-08-16 12:25:00,
2013-08-16 05:30:00,68.6,57.6,29.80,ESE,110,0.0,0.0,68,0.00,,---,0.00,VWS V14.01,2013-08-16 12:30:00,
2013-08-16 05:35:00,68.4,57.8,29.80,ESE,110,0.0,0.0,69,0.00,,---,0.00,VWS V14.01,2013-08-16 12:35:00,
2013-08-16 05:40:00,68.2,58.0,29.80,ESE,110,0.0,0.0,70,0.00,,---,0.00,VWS V14.01,2013-08-16 12:40:00,
2013-08-16 05:45:00,67.8,58.1,29.80,ESE,110,0.0,0.0,71,0.00,,---,0.00,VWS V14.01,2013-08-16 12:45:00,
2013-08-16 05:50:00,67.6,58.3,29.80,ESE,110,0.0,0.0,72,0.00,,---,0.00,VWS V14.01,2013-08-16 12:50:00,
2013-08-16 05:55:00,67.7,58.4,29.80,ESE,110,0.0,0.0,72,0.00,,---,0.00,VWS V14.01,2013-08-16 12:55:00,
2013-08-16 06:00:00,67.4,58.1,29.80,ESE,110,0.0,0.0,72,0.00,,---,0.00,VWS V14.01,2013-08-16 13:00:00,
2013-08-16 06:05:00,67.0,57.7,29.80,ESE,110,0.0,0.0,72,0.00,,---,0.00,VWS V14.01,2013-08-16 13:05:00,
2013-08-16 06:10:00,67.2,57.9,29.80,East,101,0.0,4.0,72,0.00,,---,0.00,VWS V14.01,2013-08-16 13:10:00,
2013-08-16 06:15:00,67.6,57.9,29.81,East,101,0.0,0.0,71,0.00,,---,0.00,VWS V14.01,2013-08-16 13:15:00,
2013-08-16 06:20:00,68.1,58.7,29.80,East,101,0.0,0.0,72,0.00,,---,0.00,VWS V14.01,2013-08-16 13:20:00,
2013-08-16 06:25:00,68.9,59.1,29.81,East,101,0.0,0.0,71,0.00,,---,0.00,VWS V14.01,2013-08-16 13:25:00,
2013-08-16 06:30:00,69.8,59.6,29.80,East,101,0.0,0.0,70,0.00,,---,0.00,VWS V14.01,2013-08-16 13:30:00,
2013-08-16 06:35:00,70.8,59.7,29.80,East,101,0.0,0.0,68,0.00,,---,0.00,VWS V14.01,2013-08-16 13:35:00,
2013-08-16 06:40:00,71.6,59.7,29.81,East,101,0.0,0.0,66,0.00,,---,0.00,VWS V14.01,2013-08-16 13:40:00,
2013-08-16 06:45:00,72.3,59.5,29.81,East,101,0.0,0.0,64,0.00,,---,0.00,VWS V14.01,2013-08-16 13:45:00,
2013-08-16 06:50:00,72.9,59.1,29.80,East,101,0.0,3.0,62,0.00,,---,0.00,VWS V14.01,2013-08-16 13:50:00,
2013-08-16 06:55:00,74.1,59.3,29.81,East,101,0.0,0.0,60,0.00,,---,0.00,VWS V14.01,2013-08-16 13:55:00,
2013-08-16 07:00:00,75.1,59.8,29.81,East,101,0.0,0.0,59,0.00,,---,0.00,VWS V14.01,2013-08-16 14:00:00,
2013-08-16 07:05:00,76.0,59.7,29.81,East,99,0.0,0.0,57,0.00,,---,0.00,VWS V14.01,2013-08-16 14:05:00,
2013-08-16 07:10:00,76.6,59.8,29.81,East,99,0.0,0.0,56,0.00,,---,0.00,VWS V14.01,2013-08-16 14:10:00,
2013-08-16 07:15:00,77.3,59.4,29.81,East,99,0.0,0.0,54,0.00,,---,0.00,VWS V14.01,2013-08-16 14:15:00,
2013-08-16 07:20:00,78.3,59.8,29.81,East,99,0.0,0.0,53,0.00,,---,0.00,VWS V14.01,2013-08-16 14:20:00,
2013-08-16 07:25:00,79.2,60.1,29.81,East,99,0.0,0.0,52,0.00,,---,0.00,VWS V14.01,2013-08-16 14:25:00,
2013-08-16 07:30:00,80.2,59.9,29.81,East,99,0.0,0.0,50,0.00,,---,0.00,VWS V14.01,2013-08-16 14:30:00,
2013-08-16 07:35:00,81.2,60.8,29.81,East,99,0.0,0.0,50,0.00,,---,0.00,VWS V14.01,2013-08-16 14:35:00,
2013-08-16 07:40:00,81.8,60.2,29.81,East,99,0.0,1.0,48,0.00,,---,0.00,VWS V14.01,2013-08-16 14:40:00,
2013-08-16 07:45:00,82.0,60.4,29.81,SSE,155,2.0,4.0,48,0.00,,---,0.00,VWS V14.01,2013-08-16 14:45:00,
2013-08-16 07:50:00,82.2,61.2,29.81,SSE,148,2.0,4.0,49,0.00,,---,0.00,VWS V14.01,2013-08-16 14:50:00,
2013-08-16 07:55:00,82.2,60.6,29.81,SE,130,4.0,5.0,48,0.00,,---,0.00,VWS V14.01,2013-08-16 14:55:00,
2013-08-16 08:00:00,82.4,60.2,29.81,SSE,148,1.0,7.0,47,0.00,,---,0.00,VWS V14.01,2013-08-16 15:00:00,
2013-08-16 08:05:00,82.9,60.0,29.81,SE,138,1.0,5.0,46,0.00,,---,0.00,VWS V14.01,2013-08-16 15:05:00,
2013-08-16 08:10:00,83.2,60.3,29.81,ESE,119,4.0,5.0,46,0.00,,---,0.00,VWS V14.01,2013-08-16 15:10:00,
2013-08-16 08:15:00,83.4,60.5,29.81,SSE,153,2.0,5.0,46,0.00,,---,0.00,VWS V14.01,2013-08-16 15:15:00,
2013-08-16 08:20:00,83.6,60.7,29.81,SSE,161,5.0,5.0,46,0.00,,---,0.00,VWS V14.01,2013-08-16 15:20:00,
2013-08-16 08:25:00,83.9,60.9,29.81,SSE,168,2.0,4.0,46,0.00,,---,0.00,VWS V14.01,2013-08-16 15:25:00,
2013-08-16 08:30:00,84.2,61.2,29.81,South,191,1.0,6.0,46,0.00,,---,0.00,VWS V14.01,2013-08-16 15:30:00,
2013-08-16 08:35:00,84.1,61.7,29.81,SSW,210,2.0,5.0,47,0.00,,---,0.00,VWS V14.01,2013-08-16 15:35:00,
2013-08-16 08:40:00,84.1,61.7,29.81,SW,218,6.0,7.0,47,0.00,,---,0.00,VWS V14.01,2013-08-16 15:40:00,
2013-08-16 08:45:00,83.7,61.3,29.81,SW,215,4.0,6.0,47,0.00,,---,0.00,VWS V14.01,2013-08-16 15:45:00,
2013-08-16 08:50:00,83.4,61.7,29.81,WSW,243,2.0,6.0,48,0.00,,---,0.00,VWS V14.01,2013-08-16 15:50:00,
2013-08-16 08:55:00,83.4,62.3,29.81,SSW,207,1.0,7.0,49,0.00,,---,0.00,VWS V14.01,2013-08-16 15:55:00,
2013-08-16 09:00:00,83.7,62.0,29.81,SW,223,4.0,6.0,48,0.00,,---,0.00,VWS V14.01,2013-08-16 16:00:00,
2013-08-16 09:05:00,84.0,61.6,29.81,SW,217,2.0,7.0,47,0.00,,---,0.00,VWS V14.01,2013-08-16 16:05:00,
2013-08-16 09:10:00,84.2,61.2,29.81,SW,226,2.0,6.0,46,0.00,,---,0.00,VWS V14.01,2013-08-16 16:10:00,
2013-08-16 09:15:00,84.4,61.4,29.81,SW,234,1.0,5.0,46,0.00,,---,0.00,VWS V14.01,2013-08-16 16:15:00,
2013-08-16 09:20:00,84.6,61.6,29.81,SW,219,2.0,5.0,46,0.00,,---,0.00,VWS V14.01,2013-08-16 16:20:00,
2013-08-16 09:25:00,84.9,61.2,29.81,SW,221,5.0,6.0,45,0.00,,---,0.00,VWS V14.01,2013-08-16 16:25:00,
2013-08-16 09:30:00,85.3,61.6,29.81,SW,222,5.0,5.0,45,0.00,,---,0.00,VWS V14.01,2013-08-16 16:30:00,
2013-08-16 09:35:00,85.4,61.7,29.81,SW,223,3.0,7.0,45,0.00,,---,0.00,VWS V14.01,2013-08-16 16:35:00,
2013-08-16 09:40:00,86.1,61.7,29.81,SW,223,0.0,1.0,44,0.00,,---,0.00,VWS V14.01,2013-08-16 16:40:00,
2013-08-16 09:45:00,87.0,61.2,29.81,SSW,196,4.0,5.0,42,0.00,,---,0.00,VWS V14.01,2013-08-16 16:45:00,
2013-08-16 09:50:00,87.1,61.9,29.81,SW,214,0.0,2.0,43,0.00,,---,0.00,VWS V14.01,2013-08-16 16:50:00,
2013-08-16 09:55:00,88.0,60.7,29.81,ESE,120,3.0,5.0,40,0.00,,---,0.00,VWS V14.01,2013-08-16 16:55:00,
2013-08-16 10:00:00,88.7,60.6,29.81,South,170,2.0,5.0,39,0.00,,---,0.00,VWS V14.01,2013-08-16 17:00:00,
2013-08-16 10:05:00,89.2,61.0,29.81,SSE,160,0.0,1.0,39,0.00,,---,0.00,VWS V14.01,2013-08-16 17:05:00,
2013-08-16 10:10:00,89.5,60.6,29.81,SSE,149,1.0,13.0,38,0.00,,---,0.00,VWS V14.01,2013-08-16 17:10:00,
2013-08-16 10:15:00,89.7,60.0,29.81,SSE,148,3.0,4.0,37,0.00,,---,0.00,VWS V14.01,2013-08-16 17:15:00,
2013-08-16 10:20:00,90.2,58.1,29.80,ENE,67,6.0,7.0,34,0.00,,---,0.00,VWS V14.01,2013-08-16 17:20:00,
2013-08-16 10:25:00,90.4,56.6,29.81,East,84,9.0,11.0,32,0.00,,---,0.00,VWS V14.01,2013-08-16 17:25:00,
2013-08-16 10:30:00,90.5,58.3,29.81,ENE,76,5.0,9.0,34,0.00,,---,0.00,VWS V14.01,2013-08-16 17:30:00,
2013-08-16 10:35:00,90.2,57.2,29.80,East,101,7.0,9.0,33,0.00,,---,0.00,VWS V14.01,2013-08-16 17:35:00,
2013-08-16 10:40:00,90.4,57.4,29.80,ESE,106,6.0,7.0,33,0.00,,---,0.00,VWS V14.01,2013-08-16 17:40:00,
2013-08-16 10:45:00,90.7,56.8,29.80,ESE,103,5.0,8.0,32,0.00,,---,0.00,VWS V14.01,2013-08-16 17:45:00,
2013-08-16 10:50:00,90.8,56.9,29.80,SE,128,3.0,6.0,32,0.00,,---,0.00,VWS V14.01,2013-08-16 17:50:00,
2013-08-16 10:55:00,91.3,54.6,29.80,SE,127,5.0,10.0,29,0.00,,---,0.00,VWS V14.01,2013-08-16 17:55:00,
2013-08-16 11:00:00,91.4,54.7,29.80,ENE,78,6.0,7.0,29,0.00,,---,0.00,VWS V14.01,2013-08-16 18:00:00,
2013-08-16 11:05:00,91.8,56.0,29.80,ESE,121,12.0,12.0,30,0.00,,---,0.00,VWS V14.01,2013-08-16 18:05:00,
2013-08-16 11:10:00,92.0,55.2,29.80,SE,125,6.0,7.0,29,0.00,,---,0.00,VWS V14.01,2013-08-16 18:10:00,
2013-08-16 11:15:00,92.1,56.2,29.79,SSE,167,5.0,9.0,30,0.00,,---,0.00,VWS V14.01,2013-08-16 18:15:00,
2013-08-16 11:20:00,92.8,54.9,29.79,SE,137,9.0,9.0,28,0.00,,---,0.00,VWS V14.01,2013-08-16 18:20:00,
2013-08-16 11:25:00,92.6,55.7,29.80,South,178,3.0,11.0,29,0.00,,---,0.00,VWS V14.01,2013-08-16 18:25:00,
2013-08-16 11:30:00,92.7,54.8,29.79,East,101,6.0,6.0,28,0.00,,---,0.00,VWS V14.01,2013-08-16 18:30:00,
2013-08-16 11:35:00,92.6,53.8,29.79,ENE,67,5.0,10.0,27,0.00,,---,0.00,VWS V14.01,2013-08-16 18:35:00,
2013-08-16 11:40:00,92.6,54.8,29.79,East,84,4.0,4.0,28,0.00,,---,0.00,VWS V14.01,2013-08-16 18:40:00,
2013-08-16 11:45:00,93.0,53.1,29.79,ESE,118,6.0,7.0,26,0.00,,---,0.00,VWS V14.01,2013-08-16 18:45:00,
2013-08-16 11:50:00,92.9,53.0,29.79,ENE,68,5.0,10.0,26,0.00,,---,0.00,VWS V14.01,2013-08-16 18:50:00,
2013-08-16 11:55:00,93.0,53.1,29.79,SE,131,7.0,8.0,26,0.00,,---,0.00,VWS V14.01,2013-08-16 18:55:00,
2013-08-16 12:00:00,93.6,52.5,29.78,SE,130,6.0,7.0,25,0.00,,---,0.00,VWS V14.01,2013-08-16 19:00:00,
2013-08-16 12:04:00,93.6,52.5,29.78,ESE,104,1.0,5.0,25,0.00,,---,0.00,VWS V14.01,2013-08-16 19:04:00,
2013-08-16 12:05:00,93.8,51.6,29.78,East,98,5.0,9.0,24,0.00,,---,0.00,VWS V14.01,2013-08-16 19:05:00,
2013-08-16 12:09:00,93.9,48.1,29.78,ESE,123,6.0,12.0,21,0.00,,---,0.00,VWS V14.01,2013-08-16 19:09:00,
2013-08-16 12:10:00,93.8,50.4,29.79,ESE,112,11.0,11.0,23,0.00,,---,0.00,VWS V14.01,2013-08-16 19:10:00,
2013-08-16 12:14:00,93.6,52.5,29.78,ESE,119,0.0,10.0,25,0.00,,---,0.00,VWS V14.01,2013-08-16 19:14:00,
2013-08-16 12:15:00,93.7,52.6,29.78,ESE,118,10.0,12.0,25,0.00,,---,0.00,VWS V14.01,2013-08-16 19:15:00,
2013-08-16 12:19:00,93.6,51.4,29.78,East,98,6.0,7.0,24,0.00,,---,0.00,VWS V14.01,2013-08-16 19:19:00,
2013-08-16 12:20:00,93.7,51.5,29.78,SSE,160,3.0,11.0,24,0.00,,---,0.00,VWS V14.01,2013-08-16 19:20:00,
2013-08-16 12:24:00,94.4,50.9,29.78,East,99,5.0,9.0,23,0.00,,---,0.00,VWS V14.01,2013-08-16 19:24:00,
2013-08-16 12:25:00,94.3,52.0,29.78,SE,137,6.0,15.0,24,0.00,,---,0.00,VWS V14.01,2013-08-16 19:25:00,
2013-08-16 12:29:00,94.6,51.1,29.78,SSE,159,7.0,11.0,23,0.00,,---,0.00,VWS V14.01,2013-08-16 19:29:00,
2013-08-16 12:30:00,94.6,51.1,29.78,SSE,148,3.0,9.0,23,0.00,,---,0.00,VWS V14.01,2013-08-16 19:30:00,
2013-08-16 12:34:00,94.6,52.2,29.78,SSE,167,2.0,6.0,24,0.00,,---,0.00,VWS V14.01,2013-08-16 19:34:00,
2013-08-16 12:35:00,94.5,51.0,29.78,ESE,112,0.0,11.0,23,0.00,,---,0.00,VWS V14.01,2013-08-16 19:35:00,
2013-08-16 12:39:00,94.7,50.0,29.78,SE,146,6.0,9.0,22,0.00,,---,0.00,VWS V14.01,2013-08-16 19:39:00,
2013-08-16 12:40:00,94.8,51.3,29.78,SE,128,8.0,13.0,23,0.00,,---,0.00,VWS V14.01,2013-08-16 19:40:00,
2013-08-16 12:44:00,94.5,49.8,29.78,ESE,108,4.0,5.0,22,0.00,,---,0.00,VWS V14.01,2013-08-16 19:44:00,
2013-08-16 12:45:00,94.4,50.9,29.78,ESE,107,4.0,9.0,23,0.00,,---,0.00,VWS V14.01,2013-08-16 19:45:00,
2013-08-16 12:49:00,94.7,50.0,29.77,ESE,111,0.0,2.0,22,0.00,,---,0.00,VWS V14.01,2013-08-16 19:49:00,
2013-08-16 12:50:00,94.6,49.9,29.78,ESE,111,0.0,7.0,22,0.00,,---,0.00,VWS V14.01,2013-08-16 19:50:00,
2013-08-16 12:54:00,95.5,50.7,29.77,ESE,111,6.0,9.0,22,0.00,,---,0.00,VWS V14.01,2013-08-16 19:54:00,
2013-08-16 12:55:00,95.3,50.5,29.77,ESE,109,6.0,10.0,22,0.00,,---,0.00,VWS V14.01,2013-08-16 19:55:00,
2013-08-16 12:59:00,95.0,50.2,29.77,SE,126,5.0,7.0,22,0.00,,---,0.00,VWS V14.01,2013-08-16 19:59:00,
2013-08-16 13:00:00,95.1,50.3,29.77,ESE,118,0.0,9.0,22,0.00,,---,0.00,VWS V14.01,2013-08-16 20:00:00,
2013-08-16 13:04:00,95.0,50.2,29.77,East,96,4.0,5.0,22,0.00,,---,0.00,VWS V14.01,2013-08-16 20:04:00,
2013-08-16 13:05:00,95.0,50.2,29.77,East,92,2.0,10.0,22,0.00,,---,0.00,VWS V14.01,2013-08-16 20:05:00,
2013-08-16 13:09:00,95.4,50.6,29.77,ESE,112,2.0,10.0,22,0.00,,---,0.00,VWS V14.01,2013-08-16 20:09:00,
2013-08-16 13:10:00,95.5,50.7,29.77,ESE,118,10.0,13.0,22,0.00,,---,0.00,VWS V14.01,2013-08-16 20:10:00,
2013-08-16 13:14:00,95.3,51.7,29.77,SSE,156,3.0,13.0,23,0.00,,---,0.00,VWS V14.01,2013-08-16 20:14:00,
2013-08-16 13:15:00,95.2,50.4,29.77,ESE,107,5.0,12.0,22,0.00,,---,0.00,VWS V14.01,2013-08-16 20:15:00,
2013-08-16 13:19:00,95.5,51.8,29.76,ESE,113,6.0,12.0,23,0.00,,---,0.00,VWS V14.01,2013-08-16 20:19:00,
2013-08-16 13:20:00,95.2,51.6,29.77,ESE,123,4.0,13.0,23,0.00,,---,0.00,VWS V14.01,2013-08-16 20:20:00,
2013-08-16 13:24:00,95.3,51.7,29.76,ENE,57,8.0,11.0,23,0.00,,---,0.00,VWS V14.01,2013-08-16 20:24:00,
2013-08-16 13:25:00,95.5,51.8,29.76,ESE,121,11.0,13.0,23,0.00,,---,0.00,VWS V14.01,2013-08-16 20:25:00,
2013-08-16 13:29:00,95.4,50.6,29.76,South,181,3.0,7.0,22,0.00,,---,0.00,VWS V14.01,2013-08-16 20:29:00,
2013-08-16 13:30:00,95.2,50.4,29.76,SSE,158,5.0,12.0,22,0.00,,---,0.00,VWS V14.01,2013-08-16 20:30:00,
2013-08-16 13:34:00,96.0,51.1,29.76,SE,134,7.0,10.0,22,0.00,,---,0.00,VWS V14.01,2013-08-16 20:34:00,
2013-08-16 13:35:00,95.9,51.0,29.76,East,101,8.0,11.0,22,0.00,,---,0.00,VWS V14.01,2013-08-16 20:35:00,
2013-08-16 13:39:00,96.1,51.1,29.76,East,98,5.0,9.0,22,0.00,,---,0.00,VWS V14.01,2013-08-16 20:39:00,
2013-08-16 13:40:00,96.3,50.0,29.76,SE,130,6.0,10.0,21,0.00,,---,0.00,VWS V14.01,2013-08-16 20:40:00,
2013-08-16 13:44:00,96.0,51.1,29.75,SE,128,7.0,10.0,22,0.00,,---,0.00,VWS V14.01,2013-08-16 20:44:00,
2013-08-16 13:45:00,96.0,51.1,29.75,ESE,114,6.0,9.0,22,0.00,,---,0.00,VWS V14.01,2013-08-16 20:45:00,
2013-08-16 13:49:00,96.4,50.1,29.75,SE,146,3.0,7.0,21,0.00,,---,0.00,VWS V14.01,2013-08-16 20:49:00,
2013-08-16 13:50:00,96.7,50.4,29.75,SSE,152,7.0,10.0,21,0.00,,---,0.00,VWS V14.01,2013-08-16 20:50:00,
2013-08-16 13:54:00,96.2,50.0,29.75,ESE,115,3.0,11.0,21,0.00,,---,0.00,VWS V14.01,2013-08-16 20:54:00,
2013-08-16 13:55:00,96.1,51.1,29.75,SE,140,5.0,10.0,22,0.00,,---,0.00,VWS V14.01,2013-08-16 20:55:00,
2013-08-16 13:59:00,96.1,49.9,29.75,SSE,148,3.0,7.0,21,0.00,,---,0.00,VWS V14.01,2013-08-16 20:59:00,
2013-08-16 14:00:00,95.8,49.6,29.75,ESE,111,7.0,11.0,21,0.00,,---,0.00,VWS V14.01,2013-08-16 21:00:00,
2013-08-16 14:04:00,96.4,50.1,29.74,SSE,159,5.0,9.0,21,0.00,,---,0.00,VWS V14.01,2013-08-16 21:04:00,
2013-08-16 14:05:00,96.4,51.4,29.75,ESE,116,8.0,8.0,22,0.00,,---,0.00,VWS V14.01,2013-08-16 21:05:00,
2013-08-16 14:09:00,96.1,48.6,29.74,SSE,150,4.0,7.0,20,0.00,,---,0.00,VWS V14.01,2013-08-16 21:09:00,
2013-08-16 14:10:00,96.3,48.8,29.74,SSE,157,7.0,9.0,20,0.00,,---,0.00,VWS V14.01,2013-08-16 21:10:00,
2013-08-16 14:14:00,96.6,49.0,29.74,SE,141,8.0,11.0,20,0.00,,---,0.00,VWS V14.01,2013-08-16 21:14:00,
2013-08-16 14:15:00,96.2,48.7,29.74,SE,136,3.0,11.0,20,0.00,,---,0.00,VWS V14.01,2013-08-16 21:15:00,
2013-08-16 14:19:00,96.4,50.1,29.74,East,93,5.0,6.0,21,0.00,,---,0.00,VWS V14.01,2013-08-16 21:19:00,
2013-08-16 14:20:00,96.3,50.0,29.74,ESE,123,5.0,11.0,21,0.00,,---,0.00,VWS V14.01,2013-08-16 21:20:00,
2013-08-16 14:24:00,96.5,50.2,29.73,ENE,57,0.0,7.0,21,0.00,,---,0.00,VWS V14.01,2013-08-16 21:24:00,
2013-08-16 14:25:00,96.6,50.3,29.73,NE,48,7.0,13.0,21,0.00,,---,0.00,VWS V14.01,2013-08-16 21:25:00,
2013-08-16 14:29:00,96.8,49.2,29.73,SE,129,0.0,7.0,20,0.00,,---,0.00,VWS V14.01,2013-08-16 21:29:00,
2013-08-16 14:30:00,96.7,50.4,29.73,SE,129,7.0,8.0,21,0.00,,---,0.00,VWS V14.01,2013-08-16 21:30:00,
2013-08-16 14:34:00,97.1,49.4,29.73,SSE,155,10.0,10.0,20,0.00,,---,0.00,VWS V14.01,2013-08-16 21:34:00,
2013-08-16 14:35:00,97.0,50.6,29.73,South,173,3.0,7.0,21,0.00,,---,0.00,VWS V14.01,2013-08-16 21:35:00,
2013-08-16 14:39:00,96.9,49.2,29.73,SSE,149,3.0,5.0,20,0.00,,---,0.00,VWS V14.01,2013-08-16 21:39:00,
2013-08-16 14:40:00,96.9,49.2,29.73,ESE,118,4.0,11.0,20,0.00,,---,0.00,VWS V14.01,2013-08-16 21:40:00,
2013-08-16 14:44:00,97.3,50.9,29.72,South,173,2.0,6.0,21,0.00,,---,0.00,VWS V14.01,2013-08-16 21:44:00,
2013-08-16 14:45:00,97.3,50.9,29.72,SE,138,6.0,14.0,21,0.00,,---,0.00,VWS V14.01,2013-08-16 21:45:00,
2013-08-16 14:49:00,97.0,50.6,29.72,SSW,211,4.0,6.0,21,0.00,,---,0.00,VWS V14.01,2013-08-16 21:49:00,
2013-08-16 14:50:00,96.9,50.5,29.72,SSE,150,4.0,10.0,21,0.00,,---,0.00,VWS V14.01,2013-08-16 21:50:00,
2013-08-16 14:54:00,97.0,49.3,29.72,SSW,196,5.0,12.0,20,0.00,,---,0.00,VWS V14.01,2013-08-16 21:54:00,
2013-08-16 14:55:00,97.0,50.6,29.72,SSW,206,2.0,15.0,21,0.00,,---,0.00,VWS V14.01,2013-08-16 21:55:00,
2013-08-16 14:59:00,96.7,49.1,29.72,SW,219,4.0,6.0,20,0.00,,---,0.00,VWS V14.01,2013-08-16 21:59:00,
2013-08-16 15:00:00,96.9,49.2,29.72,SW,219,3.0,12.0,20,0.00,,---,0.00,VWS V14.01,2013-08-16 22:00:00,
2013-08-16 15:04:00,96.9,49.2,29.72,South,180,2.0,6.0,20,0.00,,---,0.00,VWS V14.01,2013-08-16 22:04:00,
2013-08-16 15:05:00,96.7,50.4,29.72,SSE,166,2.0,9.0,21,0.00,,---,0.00,VWS V14.01,2013-08-16 22:05:00,
2013-08-16 15:09:00,97.0,49.3,29.72,SE,126,7.0,10.0,20,0.00,,---,0.00,VWS V14.01,2013-08-16 22:09:00,
2013-08-16 15:10:00,96.9,50.5,29.71,South,169,9.0,11.0,21,0.00,,---,0.00,VWS V14.01,2013-08-16 22:10:00,
2013-08-16 15:14:00,96.9,49.2,29.71,ESE,118,6.0,12.0,20,0.00,,---,0.00,VWS V14.01,2013-08-16 22:14:00,
2013-08-16 15:15:00,97.1,49.4,29.72,SE,126,3.0,10.0,20,0.00,,---,0.00,VWS V14.01,2013-08-16 22:15:00,
2013-08-16 15:19:00,96.7,47.7,29.71,ESE,114,7.0,9.0,19,0.00,,---,0.00,VWS V14.01,2013-08-16 22:19:00,
2013-08-16 15:20:00,96.6,47.6,29.71,East,92,6.0,12.0,19,0.00,,---,0.00,VWS V14.01,2013-08-16 22:20:00,
2013-08-16 15:24:00,96.5,47.5,29.71,ESE,115,5.0,8.0,19,0.00,,---,0.00,VWS V14.01,2013-08-16 22:24:00,
2013-08-16 15:25:00,96.5,47.5,29.71,ESE,117,5.0,9.0,19,0.00,,---,0.00,VWS V14.01,2013-08-16 22:25:00,
2013-08-16 15:29:00,96.0,47.1,29.71,East,94,4.0,6.0,19,0.00,,---,0.00,VWS V14.01,2013-08-16 22:29:00,
2013-08-16 15:30:00,96.1,47.2,29.71,East,94,4.0,8.0,19,0.00,,---,0.00,VWS V14.01,2013-08-16 22:30:00,
2013-08-16 15:34:00,95.8,48.3,29.71,East,87,6.0,7.0,20,0.00,,---,0.00,VWS V14.01,2013-08-16 22:34:00,
2013-08-16 15:35:00,95.9,48.4,29.71,East,94,0.0,6.0,20,0.00,,---,0.00,VWS V14.01,2013-08-16 22:35:00,
2013-08-16 15:39:00,95.5,49.4,29.71,East,99,0.0,0.0,21,0.00,,---,0.00,VWS V14.01,2013-08-16 22:39:00,
2013-08-16 15:40:00,95.4,49.3,29.71,East,99,0.0,7.0,21,0.00,,---,0.00,VWS V14.01,2013-08-16 22:40:00,
2013-08-16 15:44:00,96.2,52.4,29.71,East,92,12.0,14.0,23,0.00,,---,0.00,VWS V14.01,2013-08-16 22:44:00,
2013-08-16 15:45:00,96.2,51.2,29.71,East,93,5.0,10.0,22,0.00,,---,0.00,VWS V14.01,2013-08-16 22:45:00,
2013-08-16 15:49:00,93.8,51.6,29.71,ESE,111,11.0,16.0,24,0.00,,---,0.00,VWS V14.01,2013-08-16 22:49:00,
2013-08-16 15:50:00,94.6,52.2,29.71,ESE,115,12.0,16.0,24,0.00,,---,0.00,VWS V14.01,2013-08-16 22:50:00,
2013-08-16 15:54:00,91.9,53.2,29.71,ESE,114,9.0,14.0,27,0.00,,---,0.00,VWS V14.01,2013-08-16 22:54:00,
2013-08-16 15:55:00,92.2,52.4,29.71,ESE,117,6.0,16.0,26,0.00,,---,0.00,VWS V14.01,2013-08-16 22:55:00,
2013-08-16 15:59:00,91.1,52.5,29.72,ESE,112,11.0,18.0,27,0.00,,---,0.00,VWS V14.01,2013-08-16 22:59:00,
2013-08-16 16:00:00,91.5,52.8,29.72,ESE,123,15.0,19.0,27,0.00,,---,0.00,VWS V14.01,2013-08-16 23:00:00,
2013-08-16 16:04:00,89.8,53.3,29.72,SE,126,14.0,16.0,29,0.00,,---,0.00,VWS V14.01,2013-08-16 23:04:00,
2013-08-16 16:05:00,90.2,52.7,29.72,ESE,111,15.0,20.0,28,0.00,,---,0.00,VWS V14.01,2013-08-16 23:05:00,
2013-08-16 16:09:00,89.4,53.0,29.72,SE,133,19.0,19.0,29,0.00,,---,0.00,VWS V14.01,2013-08-16 23:09:00,
2013-08-16 16:10:00,89.2,52.8,29.72,ESE,120,13.0,19.0,29,0.00,,---,0.00,VWS V14.01,2013-08-16 23:10:00,
2013-08-16 16:14:00,90.4,52.9,29.72,SE,126,11.0,17.0,28,0.00,,---,0.00,VWS V14.01,2013-08-16 23:14:00,
2013-08-16 16:15:00,90.1,52.6,29.72,ESE,119,11.0,19.0,28,0.00,,---,0.00,VWS V14.01,2013-08-16 23:15:00,
2013-08-16 16:19:00,91.7,52.0,29.72,SE,129,13.0,15.0,26,0.00,,---,0.00,VWS V14.01,2013-08-16 23:19:00,
2013-08-16 16:20:00,91.5,52.8,29.72,SE,144,4.0,17.0,27,0.00,,---,0.00,VWS V14.01,2013-08-16 23:20:00,
2013-08-16 16:24:00,92.4,52.6,29.72,SE,132,11.0,13.0,26,0.00,,---,0.00,VWS V14.01,2013-08-16 23:24:00,
2013-08-16 16:25:00,92.1,52.3,29.71,SSE,147,11.0,16.0,26,0.00,,---,0.00,VWS V14.01,2013-08-16 23:25:00,
2013-08-16 16:29:00,92.8,51.8,29.71,ESE,121,11.0,11.0,25,0.00,,---,0.00,VWS V14.01,2013-08-16 23:29:00,
2013-08-16 16:30:00,92.7,52.8,29.71,SSE,148,9.0,13.0,26,0.00,,---,0.00,VWS V14.01,2013-08-16 23:30:00,
2013-08-16 16:34:00,93.1,53.2,29.71,SE,128,11.0,11.0,26,0.00,,---,0.00,VWS V14.01,2013-08-16 23:34:00,
2013-08-16 16:35:00,92.9,53.0,29.71,SE,135,4.0,13.0,26,0.00,,---,0.00,VWS V14.01,2013-08-16 23:35:00,
2013-08-16 16:39:00,93.2,53.2,29.71,ESE,117,5.0,10.0,26,0.00,,---,0.00,VWS V14.01,2013-08-16 23:39:00,
2013-08-16 16:40:00,93.3,53.3,29.71,ESE,110,7.0,11.0,26,0.00,,---,0.00,VWS V14.01,2013-08-16 23:40:00,
2013-08-16 16:44:00,93.1,54.2,29.71,SE,143,7.0,12.0,27,0.00,,---,0.00,VWS V14.01,2013-08-16 23:44:00,
2013-08-16 16:45:00,93.1,54.2,29.71,SE,125,6.0,10.0,27,0.00,,---,0.00,VWS V14.01,2013-08-16 23:45:00,
2013-08-16 16:49:00,92.9,54.0,29.71,SE,136,6.0,10.0,27,0.00,,---,0.00,VWS V14.01,2013-08-16 23:49:00,
2013-08-16 16:50:00,93.0,54.1,29.71,SE,128,8.0,12.0,27,0.00,,---,0.00,VWS V14.01,2013-08-16 23:50:00,
2013-08-16 16:54:00,93.1,54.2,29.71,ESE,120,8.0,10.0,27,0.00,,---,0.00,VWS V14.01,2013-08-16 23:54:00,
2013-08-16 16:55:00,93.0,54.1,29.71,ESE,115,8.0,11.0,27,0.00,,---,0.00,VWS V14.01,2013-08-16 23:55:00,
2013-08-16 16:59:00,93.5,53.5,29.71,East,101,7.0,9.0,26,0.00,,---,0.00,VWS V14.01,2013-08-16 23:59:00,
2013-08-16 17:00:00,93.5,53.5,29.71,ESE,114,5.0,10.0,26,0.00,,---,0.00,VWS V14.01,2013-08-17 00:00:00,
2013-08-16 17:04:00,93.7,53.7,29.71,SSE,155,5.0,7.0,26,0.00,,---,0.00,VWS V14.01,2013-08-17 00:04:00,
2013-08-16 17:05:00,93.7,53.7,29.71,SE,130,4.0,9.0,26,0.00,,---,0.00,VWS V14.01,2013-08-17 00:05:00,
2013-08-16 17:09:00,94.0,53.9,29.71,SE,144,4.0,11.0,26,0.00,,---,0.00,VWS V14.01,2013-08-17 00:09:00,
2013-08-16 17:10:00,93.9,53.8,29.71,ESE,109,5.0,9.0,26,0.00,,---,0.00,VWS V14.01,2013-08-17 00:10:00,
2013-08-16 17:14:00,93.7,53.7,29.71,SE,137,5.0,6.0,26,0.00,,---,0.00,VWS V14.01,2013-08-17 00:14:00,
2013-08-16 17:15:00,93.8,53.8,29.71,SSE,153,3.0,11.0,26,0.00,,---,0.00,VWS V14.01,2013-08-17 00:15:00,
2013-08-16 17:19:00,93.8,53.8,29.71,SE,125,4.0,6.0,26,0.00,,---,0.00,VWS V14.01,2013-08-17 00:19:00,
2013-08-16 17:20:00,93.8,53.8,29.71,SE,125,6.0,9.0,26,0.00,,---,0.00,VWS V14.01,2013-08-17 00:20:00,
2013-08-16 17:24:00,93.7,53.7,29.71,ESE,122,4.0,10.0,26,0.00,,---,0.00,VWS V14.01,2013-08-17 00:24:00,
2013-08-16 17:25:00,93.9,53.8,29.71,ESE,108,6.0,9.0,26,0.00,,---,0.00,VWS V14.01,2013-08-17 00:25:00,
2013-08-16 17:29:00,93.2,54.3,29.71,ESE,111,2.0,5.0,27,0.00,,---,0.00,VWS V14.01,2013-08-17 00:29:00,
2013-08-16 17:30:00,93.4,53.4,29.71,ESE,110,5.0,10.0,26,0.00,,---,0.00,VWS V14.01,2013-08-17 00:30:00,
2013-08-16 17:34:00,92.9,54.0,29.72,SE,128,7.0,7.0,27,0.00,,---,0.00,VWS V14.01,2013-08-17 00:34:00,
2013-08-16 17:35:00,93.0,54.1,29.72,SE,131,2.0,7.0,27,0.00,,---,0.00,VWS V14.01,2013-08-17 00:35:00,
2013-08-16 17:39:00,92.6,53.8,29.71,SE,137,2.0,5.0,27,0.00,,---,0.00,VWS V14.01,2013-08-17 00:39:00,
2013-08-16 17:40:00,92.7,53.9,29.72,SE,133,0.0,7.0,27,0.00,,---,0.00,VWS V14.01,2013-08-17 00:40:00,
2013-08-16 17:44:00,92.6,54.8,29.71,SE,144,3.0,6.0,28,0.00,,---,0.00,VWS V14.01,2013-08-17 00:44:00,
2013-08-16 17:45:00,92.6,54.8,29.72,South,173,5.0,7.0,28,0.00,,---,0.00,VWS V14.01,2013-08-17 00:45:00,
2013-08-16 17:49:00,92.6,53.8,29.72,SE,145,3.0,5.0,27,0.00,,---,0.00,VWS V14.01,2013-08-17 00:49:00,
2013-08-16 17:50:00,92.6,53.8,29.71,SSE,147,2.0,6.0,27,0.00,,---,0.00,VWS V14.01,2013-08-17 00:50:00,
2013-08-16 17:54:00,92.9,54.0,29.72,South,175,4.0,7.0,27,0.00,,---,0.00,VWS V14.01,2013-08-17 00:54:00,
2013-08-16 17:55:00,92.8,53.9,29.72,SSE,152,6.0,9.0,27,0.00,,---,0.00,VWS V14.01,2013-08-17 00:55:00,
2013-08-16 17:59:00,93.2,54.3,29.72,SSE,157,4.0,6.0,27,0.00,,---,0.00,VWS V14.01,2013-08-17 00:59:00,
2013-08-16 18:00:00,93.1,54.2,29.72,SE,142,5.0,8.0,27,0.00,,---,0.00,VWS V14.01,2013-08-17 01:00:00,
2013-08-16 18:04:00,93.0,54.1,29.72,SSE,149,7.0,7.0,27,0.00,,---,0.00,VWS V14.01,2013-08-17 01:04:00,
2013-08-16 18:05:00,93.1,54.2,29.72,SE,134,7.0,7.0,27,0.00,,---,0.00,VWS V14.01,2013-08-17 01:05:00,
2013-08-16 18:09:00,93.0,53.1,29.72,SSE,149,1.0,5.0,26,0.00,,---,0.00,VWS V14.01,2013-08-17 01:09:00,
2013-08-16 18:10:00,93.0,53.1,29.72,SSE,151,4.0,9.0,26,0.00,,---,0.00,VWS V14.01,2013-08-17 01:10:00,
2013-08-16 18:14:00,92.6,52.7,29.72,SE,146,3.0,8.0,26,0.00,,---,0.00,VWS V14.01,2013-08-17 01:14:00,
2013-08-16 18:15:00,92.8,52.9,29.72,SE,142,6.0,8.0,26,0.00,,---,0.00,VWS V14.01,2013-08-17 01:15:00,
2013-08-16 18:19:00,92.1,52.3,29.71,SE,144,6.0,6.0,26,0.00,,---,0.00,VWS V14.01,2013-08-17 01:19:00,
2013-08-16 18:20:00,92.3,52.5,29.71,SSE,149,3.0,10.0,26,0.00,,---,0.00,VWS V14.01,2013-08-17 01:20:00,
2013-08-16 18:24:00,91.7,53.0,29.71,SE,131,4.0,6.0,27,0.00,,---,0.00,VWS V14.01,2013-08-17 01:24:00,
2013-08-16 18:25:00,91.8,52.1,29.71,SE,133,3.0,9.0,26,0.00,,---,0.00,VWS V14.01,2013-08-17 01:25:00,
2013-08-16 18:29:00,91.4,52.8,29.71,SE,128,4.0,5.0,27,0.00,,---,0.00,VWS V14.01,2013-08-17 01:29:00,
2013-08-16 18:30:00,91.5,52.8,29.71,SE,128,3.0,6.0,27,0.00,,---,0.00,VWS V14.01,2013-08-17 01:30:00,
2013-08-16 18:34:00,91.0,52.4,29.71,SE,128,2.0,5.0,27,0.00,,---,0.00,VWS V14.01,2013-08-17 01:34:00,
2013-08-16 18:35:00,91.1,52.5,29.71,SE,125,2.0,5.0,27,0.00,,---,0.00,VWS V14.01,2013-08-17 01:35:00,
2013-08-16 18:39:00,90.6,52.1,29.71,SE,128,1.0,3.0,27,0.00,,---,0.00,VWS V14.01,2013-08-17 01:39:00,
2013-08-16 18:40:00,90.7,52.2,29.71,SE,128,2.0,5.0,27,0.00,,---,0.00,VWS V14.01,2013-08-17 01:40:00,
2013-08-16 18:44:00,90.3,51.8,29.71,SE,128,2.0,3.0,27,0.00,,---,0.00,VWS V14.01,2013-08-17 01:44:00,
2013-08-16 18:45:00,90.4,51.9,29.72,SE,128,2.0,3.0,27,0.00,,---,0.00,VWS V14.01,2013-08-17 01:45:00,
2013-08-16 18:49:00,89.8,51.4,29.72,SE,128,1.0,1.0,27,0.00,,---,0.00,VWS V14.01,2013-08-17 01:49:00,
2013-08-16 18:50:00,90.0,51.6,29.72,SE,128,0.0,3.0,27,0.00,,---,0.00,VWS V14.01,2013-08-17 01:50:00,
2013-08-16 18:54:00,89.3,52.0,29.72,SE,128,0.0,0.0,28,0.00,,---,0.00,VWS V14.01,2013-08-17 01:54:00,
2013-08-16 18:55:00,89.4,52.0,29.72,SE,128,0.0,1.0,28,0.00,,---,0.00,VWS V14.01,2013-08-17 01:55:00,
2013-08-16 18:59:00,88.7,51.4,29.72,SE,128,0.0,0.0,28,0.00,,---,0.00,VWS V14.01,2013-08-17 01:59:00,
2013-08-16 19:00:00,88.8,51.5,29.71,SE,128,0.0,0.0,28,0.00,,---,0.00,VWS V14.01,2013-08-17 02:00:00,
2013-08-16 19:04:00,88.2,52.0,29.72,SE,128,0.0,0.0,29,0.00,,---,0.00,VWS V14.01,2013-08-17 02:04:00,
2013-08-16 19:05:00,88.3,52.0,29.72,SE,128,0.0,0.0,29,0.00,,---,0.00,VWS V14.01,2013-08-17 02:05:00,
2013-08-16 19:09:00,87.5,52.3,29.72,SE,128,0.0,0.0,30,0.00,,---,0.00,VWS V14.01,2013-08-17 02:09:00,
2013-08-16 19:10:00,87.7,52.5,29.72,SE,128,0.0,0.0,30,0.00,,---,0.00,VWS V14.01,2013-08-17 02:10:00,
2013-08-16 19:14:00,86.8,52.6,29.72,SE,128,0.0,0.0,31,0.00,,---,0.00,VWS V14.01,2013-08-17 02:14:00,
2013-08-16 19:15:00,87.0,51.8,29.72,SE,128,0.0,0.0,30,0.00,,---,0.00,VWS V14.01,2013-08-17 02:15:00,
2013-08-16 19:19:00,86.0,51.9,29.72,SE,128,0.0,0.0,31,0.00,,---,0.00,VWS V14.01,2013-08-17 02:19:00,
2013-08-16 19:20:00,86.2,52.0,29.72,SE,128,0.0,0.0,31,0.00,,---,0.00,VWS V14.01,2013-08-17 02:20:00,
2013-08-16 19:24:00,85.4,52.2,29.72,SE,128,0.0,0.0,32,0.00,,---,0.00,VWS V14.01,2013-08-17 02:24:00,
2013-08-16 19:25:00,85.5,52.3,29.72,SE,128,0.0,0.0,32,0.00,,---,0.00,VWS V14.01,2013-08-17 02:25:00,
2013-08-16 19:29:00,85.1,52.0,29.73,SE,125,1.0,3.0,32,0.00,,---,0.00,VWS V14.01,2013-08-17 02:29:00,
2013-08-16 19:30:00,85.2,52.0,29.72,SE,128,0.0,2.0,32,0.00,,---,0.00,VWS V14.01,2013-08-17 02:30:00,
2013-08-16 19:34:00,85.0,52.7,29.73,SE,124,1.0,2.0,33,0.00,,---,0.00,VWS V14.01,2013-08-17 02:34:00,
2013-08-16 19:35:00,85.0,52.7,29.73,SE,125,1.0,3.0,33,0.00,,---,0.00,VWS V14.01,2013-08-17 02:35:00,
2013-08-16 19:39:00,84.8,53.3,29.73,ESE,123,0.0,1.0,34,0.00,,---,0.00,VWS V14.01,2013-08-17 02:39:00,
2013-08-16 19:40:00,84.9,53.4,29.73,ESE,123,0.0,3.0,34,0.00,,---,0.00,VWS V14.01,2013-08-17 02:40:00,
2013-08-16 19:44:00,84.3,53.7,29.73,ESE,123,0.0,2.0,35,0.00,,---,0.00,VWS V14.01,2013-08-17 02:44:00,
2013-08-16 19:45:00,84.4,53.8,29.73,ESE,123,1.0,3.0,35,0.00,,---,0.00,VWS V14.01,2013-08-17 02:45:00,
2013-08-16 19:49:00,83.6,53.8,29.73,ESE,123,0.0,0.0,36,0.00,,---,0.00,VWS V14.01,2013-08-17 02:49:00,
2013-08-16 19:50:00,83.7,53.9,29.73,ESE,123,0.0,2.0,36,0.00,,---,0.00,VWS V14.01,2013-08-17 02:50:00,
2013-08-16 19:54:00,83.3,53.6,29.73,ESE,123,0.0,0.0,36,0.00,,---,0.00,VWS V14.01,2013-08-17 02:54:00,
2013-08-16 19:55:00,83.4,53.7,29.73,ESE,123,0.0,0.0,36,0.00,,---,0.00,VWS V14.01,2013-08-17 02:55:00,
2013-08-16 19:59:00,83.1,53.4,29.73,ESE,123,0.0,0.0,36,0.00,,---,0.00,VWS V14.01,2013-08-17 02:59:00,
2013-08-16 20:00:00,83.2,53.5,29.73,ESE,123,0.0,0.0,36,0.00,,---,0.00,VWS V14.01,2013-08-17 03:00:00,
2013-08-16 20:04:00,83.0,53.3,29.73,ESE,123,0.0,0.0,36,0.00,,---,0.00,VWS V14.01,2013-08-17 03:04:00,
2013-08-16 20:05:00,83.0,53.3,29.73,ESE,123,0.0,0.0,36,0.00,,---,0.00,VWS V14.01,2013-08-17 03:05:00,
2013-08-16 20:09:00,83.1,53.4,29.74,ESE,123,0.0,1.0,36,0.00,,---,0.00,VWS V14.01,2013-08-17 03:09:00,
2013-08-16 20:10:00,83.0,53.3,29.74,ESE,123,0.0,1.0,36,0.00,,---,0.00,VWS V14.01,2013-08-17 03:10:00,
2013-08-16 20:14:00,83.3,52.8,29.74,ESE,123,0.0,0.0,35,0.00,,---,0.00,VWS V14.01,2013-08-17 03:14:00,
2013-08-16 20:15:00,83.3,52.8,29.74,ESE,123,0.0,1.0,35,0.00,,---,0.00,VWS V14.01,2013-08-17 03:15:00,
2013-08-16 20:19:00,83.2,53.5,29.74,ESE,123,0.0,1.0,36,0.00,,---,0.00,VWS V14.01,2013-08-17 03:19:00,
2013-08-16 20:20:00,83.2,52.7,29.74,ESE,123,0.0,0.0,35,0.00,,---,0.00,VWS V14.01,2013-08-17 03:20:00,
2013-08-16 20:24:00,83.0,53.3,29.74,ESE,123,0.0,0.0,36,0.00,,---,0.00,VWS V14.01,2013-08-17 03:24:00,
2013-08-16 20:25:00,83.0,53.3,29.74,ESE,123,0.0,1.0,36,0.00,,---,0.00,VWS V14.01,2013-08-17 03:25:00,
2013-08-16 20:29:00,82.9,53.2,29.74,ESE,123,1.0,3.0,36,0.00,,---,0.00,VWS V14.01,2013-08-17 03:29:00,
2013-08-16 20:30:00,82.9,53.2,29.74,ESE,123,0.0,1.0,36,0.00,,---,0.00,VWS V14.01,2013-08-17 03:30:00,
2013-08-16 20:34:00,83.1,52.6,29.75,ESE,123,0.0,0.0,35,0.00,,---,0.00,VWS V14.01,2013-08-17 03:34:00,
2013-08-16 20:35:00,83.0,52.6,29.74,ESE,123,0.0,3.0,35,0.00,,---,0.00,VWS V14.01,2013-08-17 03:35:00,
2013-08-16 20:39:00,83.4,52.9,29.75,ESE,123,0.0,0.0,35,0.00,,---,0.00,VWS V14.01,2013-08-17 03:39:00,
2013-08-16 20:40:00,83.3,52.8,29.75,ESE,123,0.0,0.0,35,0.00,,---,0.00,VWS V14.01,2013-08-17 03:40:00,
2013-08-16 20:44:00,83.6,53.1,29.75,ESE,123,0.0,0.0,35,0.00,,---,0.00,VWS V14.01,2013-08-17 03:44:00,
2013-08-16 20:45:00,83.6,53.1,29.75,ESE,123,0.0,0.0,35,0.00,,---,0.00,VWS V14.01,2013-08-17 03:45:00,
2013-08-16 20:49:00,83.3,53.6,29.77,WNW,284,7.0,7.0,36,0.00,,---,0.00,VWS V14.01,2013-08-17 03:49:00,
2013-08-16 20:50:00,83.3,53.6,29.77,WSW,252,5.0,7.0,36,0.00,,---,0.00,VWS V14.01,2013-08-17 03:50:00,
2013-08-16 20:54:00,83.0,53.3,29.77,WNW,292,0.0,3.0,36,0.00,,---,0.00,VWS V14.01,2013-08-17 03:54:00,
2013-08-16 20:55:00,83.0,53.3,29.77,WNW,292,0.0,7.0,36,0.00,,---,0.00,VWS V14.01,2013-08-17 03:55:00,
2013-08-16 20:59:00,83.2,53.5,29.77,WNW,292,0.0,0.0,36,0.00,,---,0.00,VWS V14.01,2013-08-17 03:59:00,
2013-08-16 21:00:00,83.2,53.5,29.77,WNW,292,0.0,3.0,36,0.00,,---,0.00,VWS V14.01,2013-08-17 04:00:00,
2013-08-16 21:01:00,83.3,53.6,29.77,WNW,291,0.0,0.0,36,0.00,,---,0.00,VWS V14.01,2013-08-17 04:01:00,
2013-08-16 21:05:00,83.4,53.7,29.77,WNW,291,0.0,0.0,36,0.00,,---,0.00,VWS V14.01,2013-08-17 04:05:00,
2013-08-16 21:06:00,83.4,53.7,29.78,WNW,291,0.0,0.0,36,0.00,,---,0.00,VWS V14.01,2013-08-17 04:06:00,
2013-08-16 21:10:00,83.5,53.8,29.77,WNW,292,0.0,0.0,36,0.00,,---,0.00,VWS V14.01,2013-08-17 04:10:00,
2013-08-16 21:11:00,83.6,53.8,29.77,WNW,292,0.0,0.0,36,0.00,,---,0.00,VWS V14.01,2013-08-17 04:11:00,
2013-08-16 21:15:00,83.6,54.6,29.78,WNW,292,0.0,0.0,37,0.00,,---,0.00,VWS V14.01,2013-08-17 04:15:00,
2013-08-16 21:16:00,83.6,54.6,29.78,WNW,292,0.0,1.0,37,0.00,,---,0.00,VWS V14.01,2013-08-17 04:16:00,
2013-08-16 21:20:00,83.6,54.6,29.77,WNW,292,2.0,3.0,37,0.00,,---,0.00,VWS V14.01,2013-08-17 04:20:00,
2013-08-16 21:21:00,83.4,55.2,29.78,WNW,294,2.0,3.0,38,0.00,,---,0.00,VWS V14.01,2013-08-17 04:21:00,
2013-08-16 21:25:00,83.3,55.1,29.78,WNW,302,2.0,4.0,38,0.00,,---,0.00,VWS V14.01,2013-08-17 04:25:00,
2013-08-16 21:26:00,83.1,55.6,29.78,NNW,338,0.0,4.0,39,0.00,,---,0.00,VWS V14.01,2013-08-17 04:26:00,
2013-08-16 21:30:00,83.0,56.2,29.78,NNW,340,3.0,4.0,40,0.00,,---,0.00,VWS V14.01,2013-08-17 04:30:00,
2013-08-16 21:31:00,82.9,56.8,29.78,North,355,4.0,5.0,41,0.00,,---,0.00,VWS V14.01,2013-08-17 04:31:00,
2013-08-16 21:35:00,82.8,56.7,29.78,North,355,0.0,5.0,41,0.00,,---,0.00,VWS V14.01,2013-08-17 04:35:00,
2013-08-16 21:36:00,82.6,57.2,29.79,North,349,6.0,6.0,42,0.00,,---,0.00,VWS V14.01,2013-08-17 04:36:00,
2013-08-16 21:40:00,82.6,57.2,29.79,North,5,4.0,6.0,42,0.00,,---,0.00,VWS V14.01,2013-08-17 04:40:00,
2013-08-16 21:41:00,82.4,57.7,29.79,North,5,5.0,8.0,43,0.00,,---,0.00,VWS V14.01,2013-08-17 04:41:00,
2013-08-16 21:45:00,82.3,58.2,29.79,NNW,346,4.0,8.0,44,0.00,,---,0.00,VWS V14.01,2013-08-17 04:45:00,
2013-08-16 21:46:00,82.1,58.0,29.80,North,360,2.0,8.0,44,0.00,,---,0.00,VWS V14.01,2013-08-17 04:46:00,
2013-08-16 21:50:00,82.0,58.0,29.80,NNW,338,5.0,8.0,44,0.00,,---,0.00,VWS V14.01,2013-08-17 04:50:00,
2013-08-16 21:51:00,81.8,57.8,29.80,NNW,344,3.0,7.0,44,0.00,,---,0.00,VWS V14.01,2013-08-17 04:51:00,
2013-08-16 21:55:00,81.8,57.8,29.80,NNW,346,2.0,7.0,44,0.00,,---,0.00,VWS V14.01,2013-08-17 04:55:00,
2013-08-16 21:56:00,81.6,57.6,29.80,NNW,346,0.0,5.0,44,0.00,,---,0.00,VWS V14.01,2013-08-17 04:56:00,
2013-08-16 22:00:00,81.6,57.6,29.79,NNW,331,3.0,7.0,44,0.00,,---,0.00,VWS V14.01,2013-08-17 05:00:00,
2013-08-16 22:01:00,81.5,57.5,29.80,NNW,327,6.0,9.0,44,0.00,,---,0.00,VWS V14.01,2013-08-17 05:01:00,
2013-08-16 22:05:00,81.4,57.4,29.80,NNW,329,6.0,9.0,44,0.00,,---,0.00,VWS V14.01,2013-08-17 05:05:00,
2013-08-16 22:06:00,81.4,57.4,29.80,NW,322,5.0,6.0,44,0.00,,---,0.00,VWS V14.01,2013-08-17 05:06:00,
2013-08-16 22:10:00,81.4,57.4,29.80,NW,323,0.0,6.0,44,0.00,,---,0.00,VWS V14.01,2013-08-17 05:10:00,
2013-08-16 22:11:00,81.4,57.4,29.80,NW,323,1.0,6.0,44,0.00,,---,0.00,VWS V14.01,2013-08-17 05:11:00,
2013-08-16 22:15:00,81.3,57.3,29.80,NW,324,0.0,6.0,44,0.00,,---,0.00,VWS V14.01,2013-08-17 05:15:00,
2013-08-16 22:16:00,81.3,57.3,29.80,NW,324,0.0,0.0,44,0.00,,---,0.00,VWS V14.01,2013-08-17 05:16:00,
2013-08-16 22:20:00,81.2,57.2,29.80,NW,323,0.0,0.0,44,0.00,,---,0.00,VWS V14.01,2013-08-17 05:20:00,
2013-08-16 22:21:00,81.2,57.2,29.80,NW,323,0.0,0.0,44,0.00,,---,0.00,VWS V14.01,2013-08-17 05:21:00,
2013-08-16 22:25:00,81.1,57.2,29.81,NW,324,0.0,1.0,44,0.00,,---,0.00,VWS V14.01,2013-08-17 05:25:00,
2013-08-16 22:26:00,80.9,57.6,29.81,NW,325,0.0,2.0,45,0.00,,---,0.00,VWS V14.01,2013-08-17 05:26:00,
2013-08-16 22:30:00,80.8,57.5,29.81,NW,325,0.0,2.0,45,0.00,,---,0.00,VWS V14.01,2013-08-17 05:30:00,
2013-08-16 22:31:00,80.5,57.2,29.81,North,360,0.0,0.0,45,0.00,,---,0.00,VWS V14.01,2013-08-17 05:31:00,
2013-08-16 22:35:00,80.4,57.1,29.81,North,5,0.0,0.0,45,0.00,,---,0.00,VWS V14.01,2013-08-17 05:35:00,
2013-08-16 22:36:00,80.1,56.9,29.81,ENE,68,0.0,3.0,45,0.00,,---,0.00,VWS V14.01,2013-08-17 05:36:00,
2013-08-16 22:40:00,80.0,57.4,29.81,ENE,68,0.0,3.0,46,0.00,,---,0.00,VWS V14.01,2013-08-17 05:40:00,
2013-08-16 22:41:00,79.9,57.3,29.81,ENE,68,0.0,0.0,46,0.00,,---,0.00,VWS V14.01,2013-08-17 05:41:00,
2013-08-16 22:45:00,79.8,57.2,29.80,ENE,68,0.0,0.0,46,0.00,,---,0.00,VWS V14.01,2013-08-17 05:45:00,
2013-08-16 22:46:00,79.8,57.2,29.80,ENE,68,0.0,0.0,46,0.00,,---,0.00,VWS V14.01,2013-08-17 05:46:00,
2013-08-16 22:50:00,79.8,57.2,29.80,ENE,68,0.0,0.0,46,0.00,,---,0.00,VWS V14.01,2013-08-17 05:50:00,
2013-08-16 22:51:00,79.9,57.3,29.80,ENE,68,0.0,0.0,46,0.00,,---,0.00,VWS V14.01,2013-08-17 05:51:00,
2013-08-16 22:55:00,79.9,57.3,29.80,ENE,68,0.0,0.0,46,0.00,,---,0.00,VWS V14.01,2013-08-17 05:55:00,
2013-08-16 22:56:00,79.7,57.1,29.80,ENE,68,0.0,0.0,46,0.00,,---,0.00,VWS V14.01,2013-08-17 05:56:00,
2013-08-16 23:00:00,79.7,57.1,29.80,ENE,68,0.0,0.0,46,0.00,,---,0.00,VWS V14.01,2013-08-17 06:00:00,
2013-08-16 23:01:00,79.6,57.0,29.80,ENE,68,0.0,0.0,46,0.00,,---,0.00,VWS V14.01,2013-08-17 06:01:00,
2013-08-16 23:05:00,79.7,57.1,29.80,ENE,68,0.0,0.0,46,0.00,,---,0.00,VWS V14.01,2013-08-17 06:05:00,
2013-08-16 23:06:00,79.7,57.1,29.80,ENE,67,0.0,0.0,46,0.00,,---,0.00,VWS V14.01,2013-08-17 06:06:00,
2013-08-16 23:10:00,79.7,57.1,29.80,ENE,67,0.0,0.0,46,0.00,,---,0.00,VWS V14.01,2013-08-17 06:10:00,
2013-08-16 23:11:00,79.7,57.1,29.80,ENE,67,0.0,0.0,46,0.00,,---,0.00,VWS V14.01,2013-08-17 06:11:00,
2013-08-16 23:15:00,79.7,57.1,29.80,ENE,67,0.0,0.0,46,0.00,,---,0.00,VWS V14.01,2013-08-17 06:15:00,
2013-08-16 23:16:00,79.6,57.0,29.80,ENE,67,0.0,0.0,46,0.00,,---,0.00,VWS V14.01,2013-08-17 06:16:00,
2013-08-16 23:20:00,79.5,56.9,29.80,ENE,67,0.0,0.0,46,0.00,,---,0.00,VWS V14.01,2013-08-17 06:20:00,
2013-08-16 23:21:00,79.3,56.8,29.80,ENE,67,0.0,0.0,46,0.00,,---,0.00,VWS V14.01,2013-08-17 06:21:00,
2013-08-16 23:25:00,79.1,56.6,29.80,ENE,67,1.0,1.0,46,0.00,,---,0.00,VWS V14.01,2013-08-17 06:25:00,
2013-08-16 23:26:00,78.7,56.8,29.80,ENE,67,0.0,2.0,47,0.00,,---,0.00,VWS V14.01,2013-08-17 06:26:00,
2013-08-16 23:30:00,78.6,56.7,29.80,ENE,67,0.0,2.0,47,0.00,,---,0.00,VWS V14.01,2013-08-17 06:30:00,
2013-08-16 23:31:00,78.0,56.7,29.80,ENE,67,0.0,0.0,48,0.00,,---,0.00,VWS V14.01,2013-08-17 06:31:00,
2013-08-16 23:35:00,77.8,57.1,29.80,ENE,67,0.0,2.0,49,0.00,,---,0.00,VWS V14.01,2013-08-17 06:35:00,
2013-08-16 23:36:00,77.5,56.9,29.80,ENE,67,0.0,1.0,49,0.00,,---,0.00,VWS V14.01,2013-08-17 06:36:00,
2013-08-16 23:40:00,77.3,56.7,29.80,ENE,67,0.0,1.0,49,0.00,,---,0.00,VWS V14.01,2013-08-17 06:40:00,
2013-08-16 23:41:00,77.4,56.8,29.80,ENE,67,0.0,0.0,49,0.00,,---,0.00,VWS V14.01,2013-08-17 06:41:00,
2013-08-16 23:45:00,77.5,56.9,29.80,ENE,67,0.0,0.0,49,0.00,,---,0.00,VWS V14.01,2013-08-17 06:45:00,
2013-08-16 23:46:00,77.7,56.5,29.80,ENE,66,2.0,3.0,48,0.00,,---,0.00,VWS V14.01,2013-08-17 06:46:00,
2013-08-16 23:50:00,78.0,56.7,29.80,ENE,65,0.0,6.0,48,0.00,,---,0.00,VWS V14.01,2013-08-17 06:50:00,
2013-08-16 23:51:00,78.7,56.8,29.80,ENE,65,0.0,5.0,47,0.00,,---,0.00,VWS V14.01,2013-08-17 06:51:00,
2013-08-16 23:55:00,78.7,56.8,29.79,ENE,61,3.0,6.0,47,0.00,,---,0.00,VWS V14.01,2013-08-17 06:55:00,
2013-08-16 23:56:00,79.0,57.1,29.79,ENE,61,0.0,3.0,47,0.00,,---,0.00,VWS V14.01,2013-08-17 06:56:00,